Regional Weather Roundup
Issued by NWS

Home | Current Version | Previous Version | Graphics & Text | Print | Product List | Glossary Off
Versions: 1 2 3 4 5 6 7 8 9 10 11 12 13 14 15 16 17 18 19 20 21 22 23 24 25 26 27 28 29 30 31 32 33 34 35 36 37 38 39 40 41 42 43 44 45 46 47 48 49 50

000
ASUS43 KMPX 231501
RWRMN
WEATHER ROUNDUP FOR MINNESOTA
NATIONAL WEATHER SERVICE TWIN CITIES/CHANHASSEN MN
1000 AM CDT SAT MAY 23 2015


NOTE: "FAIR" INDICATES FEW OR NO CLOUDS BELOW 12,000 FEET WITH NO
SIGNIFICANT WEATHER AND/OR OBSTRUCTIONS TO VISIBILITY. N/A MEANS
CURRENT SKY AND/OR WEATHER CONDITIONS ARE NOT AVAILABLE.

MNZ060>063-068>070-231600-
   Twin Cities Metro

CITY           SKY/WX    TMP DP  RH WIND       PRES   REMARKS
TWIN CITIES    CLOUDY    64  45  49 SW6       30.26S
ST PAUL        CLOUDY    62  49  62 S7        30.27R
CRYSTAL        CLOUDY    65  45  48 NW6       30.24F
LAKEVILLE      CLOUDY    61  45  55 NW8       30.24F
EDEN PRAIRIE   CLOUDY    61  48  62 S3        30.26S
SOUTH ST PAUL  CLOUDY    62  46  56 SW3       30.27S
LAKE ELMO      FAIR      63  48  59 SW6       30.27R
$$
MNZ001>005-007-008-013>017-022>024-027-028-231600-
   Northwest Minnesota

CITY           SKY/WX    TMP DP  RH WIND       PRES   REMARKS
BEMIDJI        SUNNY     65  44  46 S6        30.19S
HALLOCK        SUNNY     68  45  42 S5        30.13S
ROSEAU         SUNNY     70  39  32 W5        30.15S
WARROAD        SUNNY     72  43  35 SW12      30.15S
THIEF RVR FALL SUNNY     64  46  52 S10       30.17S
CROOKSTON      SUNNY     63  46  55 SW10      30.16F
FOSSTON        SUNNY     63  45  51 S10       30.19F
DETROIT LAKES  SUNNY     63  43  48 W9        30.23S
MOORHEAD       SUNNY     63  48  59 SW7       30.21S
PARK RAPIDS    SUNNY     67  43  41 VRB6      30.21S
MAHNOMEN       FAIR      63  42  45 W13       30.21R
$$
MNZ006-009>011-018-025>026-231600-
   North Central Minnesota

CITY           SKY/WX    TMP DP  RH WIND       PRES   REMARKS
BAUDETTE       SUNNY     72  38  29 W7        30.15F
FLAG ISLAND    SUNNY     57  46  67 CALM      30.13F
INTL FALLS     SUNNY     70  41  34 VRB7      30.17S
WASKISH        SUNNY     66  48  52 CALM      30.18S
BIG FORK       SUNNY     72  39  30 SW10      30.19F
LONGVILLE      SUNNY     64  45  48 SW6       30.21S
GRAND RAPIDS   SUNNY     70  37  30 S6        30.21S
CRANE LAKE     SUNNY     70  36  28 W3        30.19S
COOK           SUNNY     70  37  30 W9        30.19F
WALKER         FAIR      64  43  46 SW6       30.20S
$$
MNZ012-019>021-037-231600-
   Northeast Minnesota

CITY           SKY/WX    TMP DP  RH WIND       PRES   REMARKS
DULUTH         SUNNY     71  37  28 W13       30.22S
ELY            SUNNY     70  36  28 SW9G16    30.19S
HIBBING        SUNNY     71  35  26 SW10G17   30.20F
EVELETH        SUNNY     68  37  32 SW8       30.21F
DULUTH HARBOR  SUNNY     70  41  35 SW8       30.21F
TWO HARBORS    SUNNY     73  46  38 SW13      30.19S
SILVER BAY     SUNNY     73  37  27 SW6       30.17F
GRAND MARAIS     N/A     49  37  63 W15       30.15F
G MARAIS ARPRT MOSUNNY   70  34  26 W14G23    30.19S
$$
MNZ029>031-032-039>041-046>048-054>057-064-231600-
   West Central Minnesota

CITY           SKY/WX    TMP DP  RH WIND       PRES   REMARKS
FERGUS FALLS   SUNNY     63  43  48 CALM      30.23S
WHEATON        MOSUNNY   59  45  58 E8        30.23F
MORRIS         PTSUNNY   61  45  55 SE7       30.22F
ALEXANDRIA     MOSUNNY   64  42  44 CALM      30.25S
ELBOW LAKE     FAIR      62  43  49 CALM      30.22F
WADENA         SUNNY     63  43  48 W9        30.23R
GLENWOOD       PTSUNNY   63  43  48 S1        30.25S
APPLETON       PTSUNNY   63  45  51 E9        30.21F
BENSON         CLOUDY    61  45  55 CALM      30.23F
ORTONVILLE     PTSUNNY   61  45  55 E9        30.20F
MADISON        CLOUDY    64  48  55 E14       30.21F
WILLMAR        FAIR      61  52  72 E3        30.26F
$$
MNZ033>034-036-042>043-049>051-058-059-231600-
   Central Minnesota

CITY           SKY/WX    TMP DP  RH WIND       PRES   REMARKS
ST CLOUD       CLOUDY    62  47  57 W5        30.24F
SAUK CENTRE    FAIR      62  44  52 CALM      30.25S
PAYNESVILLE    CLOUDY    59  44  57 S5        30.26S
AITKIN         SUNNY     66  43  42 SW5       30.20F
PINE RIVER     SUNNY     63  46  55 W5        30.24F
BRAINERD       SUNNY     65  43  44 NW8       30.23F
STAPLES        SUNNY     64  39  39 W8        30.24R
LONG PRAIRIE   FAIR      63  43  48 W3        30.24F
LITTLE FALLS   MOSUNNY   63  41  45 W6        30.24S
LITCHFIELD     CLOUDY    63  50  63 N3        30.25F
BUFFALO        CLOUDY    59  47  65 CALM      30.26S
MAPLE LAKE     CLOUDY    62  48  61 CALM      30.26F
$$
MNZ037-044-045-052-053-231600-
   East Central Minnesota

CITY           SKY/WX    TMP DP  RH WIND       PRES   REMARKS
PRINCETON      PTSUNNY   68  46  45 W10       30.24F
MORA           SUNNY     63  45  51 CALM      30.25S
CAMBRIDGE      MOSUNNY   68  48  49 SW6       30.22S
RUSH CITY      MOSUNNY   64  46  51 CALM      30.24S
MOOSE LAKE     SUNNY     68  41  37 S7        30.21S
HINCKLEY       FAIR      66  46  48 S5        30.23F
CLOQUET        SUNNY     72  32  23 SW10      30.22S
MCGREGOR       SUNNY     68  41  37 SW6       30.22F
$$
MNZ071>073-080-081-089-090-097-098-231600-
   Southwest Minnesota

CITY           SKY/WX    TMP DP  RH WIND       PRES   REMARKS
MONTEVIDEO     DRIZZLE   61  50  67 SE6       30.23F
GRANITE FALLS  DRIZZLE   58  50  73 E6        30.24F
CANBY          CLOUDY    60  50  68 SE12      30.22F
MARSHALL       CLOUDY    57  48  72 SE9       30.23F
REDWOOD FALLS  LGT RAIN  56  52  86 N3        30.23F
OLIVIA         LGT RAIN  55  46  71 NE3       30.23F
PIPESTONE      CLOUDY    57  46  67 SE9       30.21S
WINDOM         LGT RAIN  61  48  63 CALM      30.24F
WORTHINGTON    CLOUDY    59  46  63 SE12      30.23S
JACKSON        CLOUDY    61  52  72 SE10      30.25S
TRACY          LGT RAIN  58  52  80 SE8       30.24F
SLAYTON        CLOUDY    56  51  84 CALM      30.24S
$$
MNZ065>067-074>077-082>085-091>093-231600-
   South Central Minnesota

CITY           SKY/WX    TMP DP  RH WIND       PRES   REMARKS
MANKATO        CLOUDY    63  46  55 NE8       30.24F
NEW ULM        CLOUDY    61  46  59 E3        30.23F
ST JAMES       CLOUDY    63  52  67 E6        30.25S
FAIRMONT       CLOUDY    59  46  63 E8        30.24F
GLENCOE        CLOUDY    62  49  62 N7        30.23F
FARIBAULT      CLOUDY    63  46  55 MISG      30.25F
OWATONNA       CLOUDY    63  46  55 N8        30.25F
WASECA         CLOUDY    63  45  51 N13       30.25F
ALBERT LEA     PTSUNNY   64  45  48 NE6       30.25F
$$
MNZ078>079-086>088-094>096-231600-
   Southeast Minnesota

CITY           SKY/WX    TMP DP  RH WIND       PRES   REMARKS
ROCHESTER      PTSUNNY   65  48  54 E5        30.27F
RED WING       CLOUDY    61  45  55 W5        30.26S
STANTON        CLOUDY    63  45  51 NW6       30.25F
DODGE CENTER   CLOUDY    64  45  48 N10       30.25F
WINONA         PTSUNNY   61  48  63 CALM      30.27S
AUSTIN         PTSUNNY   63  46  55 N5        30.26F
PRESTON        CLOUDY    62  46  55 CALM      30.27F
$$
ABBREVIATIONS USED IN REMARKS
   TC - TEMPERATURES IN CELSIUS
  WCI - WIND CHILL INDEX
   HX - HEAT INDEX
  VSB - VISIBILITY
$$


USA.gov is the U.S. government's official web portal to all federal, state and local government web resources and services.